Tracking 28052 objects as of 23-Sep-2023
HD Live streaming from Space Station
objects crossing your sky now

COSMOS 1168

Track COSMOS 1168 now!
10-day predictions
COSMOS 1168 is classified as:


NORAD ID: 11735
Int'l Code: 1980-022A
Perigee: 963.4 km
Apogee: 1,013.6 km
Inclination: 82.9 °
Period: 104.7 minutes
Semi major axis: 7359 km
RCS: 2.0656 m2 (large)
Launch date: March 17, 1980
Source: Commonwealth of Independent States (former USSR) (CIS)
Launch site: PLESETSK MISSILE AND SPACE COMPLEX (PKMTR)
Your satellite tracking list
Your tracking list is empty




NASA's NSSDC Master Catalog

Two Line Element Set (TLE):
1 11735U 80022A   23265.63269133  .00000074  00000-0  62230-4 0  9998
2 11735  82.9433 293.9716 0034116 267.0357 212.9164 13.75082284183164
Source of the keplerian elements: AFSPC